owner,sensor,date,latitude,longitude,vertical_datum,wind_speed,wind_to_direction,wind_speed_of_gust,qcFlag 
TABS,ioos:station:wmo:42045:1,2012-10-01T00:00:00Z,26.2168,-96.4998,4.0,7.578660832,317.192215,10.23,'11111222,11111222,11111222' 
TABS,ioos:station:wmo:42045:1,2012-10-01T00:30:00Z,26.2168,-96.4998,4.0,7.843143502,299.1467767,10.39,'11111222,11111222,11111222' 
TABS,ioos:station:wmo:42045:1,2012-10-01T01:00:00Z,26.2168,-96.4998,4.0,6.646216969,311.3399144,9.0,'11111222,11111222,11111222' 
TABS,ioos:station:wmo:42045:1,2012-10-01T01:30:00Z,26.2168,-96.4998,4.0,7.359796193,302.4591748,10.08,'11111222,11111222,11111222' 
TABS,ioos:station:wmo:42045:1,2012-10-01T02:00:00Z,26.2168,-96.4998,4.0,7.781548689,296.7296313,9.87,'11111222,11111222,11111222' 
TABS,ioos:station:wmo:42045:1,2012-10-01T02:30:00Z,26.2168,-96.4998,4.0,8.016164918,290.6731147,10.13,'11111222,11111222,11111222' 
TABS,ioos:station:wmo:42045:1,2012-10-01T03:00:00Z,26.2168,-96.4998,4.0,8.200371943,287.7499538,10.44,'11111222,11111222,11111222' 
TABS,ioos:station:wmo:42045:1,2012-10-01T03:30:00Z,26.2168,-96.4998,4.0,8.007309161,289.0232289,10.05,'11111222,11111222,11111222' 
TABS,ioos:station:wmo:42045:1,2012-10-01T04:00:00Z,26.2168,-96.4998,4.0,7.686019776,291.5245032,9.95,'11111222,11111222,11111222' 
TABS,ioos:station:wmo:42045:1,2012-10-01T04:30:00Z,26.2168,-96.4998,4.0,7.298499846,317.7209187,10.04,'11111222,11111222,11111222' 
TABS,ioos:station:wmo:42045:1,2012-10-01T05:00:00Z,26.2168,-96.4998,4.0,7.036312955,334.6730387,9.65,'11111222,11111222,11111222' 
TABS,ioos:station:wmo:42045:1,2012-10-01T05:30:00Z,26.2168,-96.4998,4.0,6.85588798,338.0742803,10.06,'11111222,11111222,11111222' 
TABS,ioos:station:wmo:42045:1,2012-10-01T06:00:00Z,26.2168,-96.4998,4.0,7.009172562,329.190314,10.04,'11111222,11111222,11111222' 
TABS,ioos:station:wmo:42045:1,2012-10-01T06:30:00Z,26.2168,-96.4998,4.0,6.691487129,324.9797926,9.47,'11111222,11111222,11111222' 
TABS,ioos:station:wmo:42045:1,2012-10-01T07:00:00Z,26.2168,-96.4998,4.0,6.817404198,318.8060546,9.24,'11111222,11111222,11111222' 
TABS,ioos:station:wmo:42045:1,2012-10-01T07:30:00Z,26.2168,-96.4998,4.0,6.38324369,308.000854,8.7,'11111222,11111222,11111222' 
TABS,ioos:station:wmo:42045:1,2012-10-01T08:00:00Z,26.2168,-96.4998,4.0,6.076026662,307.0395479,8.02,'11111222,11111222,11111222' 
TABS,ioos:station:wmo:42045:1,2012-10-01T08:30:00Z,26.2168,-96.4998,4.0,6.045246066,339.1664681,8.43,'11111222,11111222,11111222' 
TABS,ioos:station:wmo:42045:1,2012-10-01T09:00:00Z,26.2168,-96.4998,4.0,5.97415266,338.8039577,7.77,'11111222,11111222,11111222' 
TABS,ioos:station:wmo:42045:1,2012-10-01T09:30:00Z,26.2168,-96.4998,4.0,6.070008237,343.8340143,8.27,'11111222,11111222,11111222' 
TABS,ioos:station:wmo:42045:1,2012-10-01T10:00:00Z,26.2168,-96.4998,4.0,5.842473791,334.8822385,7.83,'11111222,11111222,11111222' 
TABS,ioos:station:wmo:42045:1,2012-10-01T10:30:00Z,26.2168,-96.4998,4.0,6.623752713,325.5180772,8.27,'11111222,11111222,11111222' 
TABS,ioos:station:wmo:42045:1,2012-10-01T11:00:00Z,26.2168,-96.4998,4.0,6.690067264,323.3869075,9.21,'11111222,11111222,11111222' 
TABS,ioos:station:wmo:42045:1,2012-10-01T11:30:00Z,26.2168,-96.4998,4.0,5.942541544,330.4582802,8.21,'11111222,11111222,11111222' 
TABS,ioos:station:wmo:42045:1,2012-10-01T12:00:00Z,26.2168,-96.4998,4.0,5.95265487,332.9182497,8.11,'11111222,11111222,11111222' 
TABS,ioos:station:wmo:42045:1,2012-10-01T12:30:00Z,26.2168,-96.4998,4.0,6.241874718,335.2824064,8.24,'11111222,11111222,11111222' 
TABS,ioos:station:wmo:42045:1,2012-10-01T13:00:00Z,26.2168,-96.4998,4.0,5.63038187,338.5385727,8.0,'11111222,11111222,11111222' 
TABS,ioos:station:wmo:42045:1,2012-10-01T13:30:00Z,26.2168,-96.4998,4.0,5.571651461,352.9895851,7.78,'11111222,11111222,11111222' 
TABS,ioos:station:wmo:42045:1,2012-10-01T14:00:00Z,26.2168,-96.4998,4.0,5.172281895,343.1414302,7.04,'11111222,11111222,11111222' 
TABS,ioos:station:wmo:42045:1,2012-10-01T14:30:00Z,26.2168,-96.4998,4.0,5.368593857,337.7822472,7.02,'11111222,11111222,11111222' 
TABS,ioos:station:wmo:42045:1,2012-10-01T15:00:00Z,26.2168,-96.4998,4.0,5.339850185,350.0788518,7.32,'11111222,11111222,11111222' 
TABS,ioos:station:wmo:42045:1,2012-10-01T15:30:00Z,26.2168,-96.4998,4.0,5.703200856,347.1332126,7.69,'11111222,11111222,11111222' 
TABS,ioos:station:wmo:42045:1,2012-10-01T16:00:00Z,26.2168,-96.4998,4.0,5.709588426,350.4220075,7.53,'11111222,11111222,11111222' 
TABS,ioos:station:wmo:42045:1,2012-10-01T16:30:00Z,26.2168,-96.4998,4.0,5.183222936,355.9063066,6.76,'11111222,11111222,11111222' 
TABS,ioos:station:wmo:42045:1,2012-10-01T17:00:00Z,26.2168,-96.4998,4.0,5.134715182,2.455408085,7.33,'11111222,11111222,11111222' 
TABS,ioos:station:wmo:42045:1,2012-10-01T17:30:00Z,26.2168,-96.4998,4.0,4.93235238,11.10466232,6.77,'11111222,11111222,11111222' 
TABS,ioos:station:wmo:42045:1,2012-10-01T18:00:00Z,26.2168,-96.4998,4.0,4.083748278,21.09768979,5.52,'11111222,11111222,11111222' 
TABS,ioos:station:wmo:42045:1,2012-10-01T18:30:00Z,26.2168,-96.4998,4.0,3.889897171,10.06747332,5.39,'11111222,11111222,11111222' 
TABS,ioos:station:wmo:42045:1,2012-10-01T19:00:00Z,26.2168,-96.4998,4.0,3.495425582,22.89699912,5.48,'11111222,11111222,11111222' 
TABS,ioos:station:wmo:42045:1,2012-10-01T19:30:00Z,26.2168,-96.4998,4.0,3.344846783,356.9149844,4.87,'11111222,11111222,11111222' 
TABS,ioos:station:wmo:42045:1,2012-10-01T20:00:00Z,26.2168,-96.4998,4.0,2.914961406,3.343157867,4.16,'11111222,11111222,11111222' 
TABS,ioos:station:wmo:42045:1,2012-10-01T20:30:00Z,26.2168,-96.4998,4.0,2.353253068,8.061007958,3.34,'11111222,11111222,11111222' 
TABS,ioos:station:wmo:42045:1,2012-10-01T21:00:00Z,26.2168,-96.4998,4.0,1.420211252,353.1249876,2.37,'11111222,11111222,11111222' 
TABS,ioos:station:wmo:42045:1,2012-10-01T21:30:00Z,26.2168,-96.4998,4.0,1.464547712,342.9258634,2.47,'11111222,11111222,11111222' 
TABS,ioos:station:wmo:42045:1,2012-10-01T22:00:00Z,26.2168,-96.4998,4.0,1.130707743,38.89691893,2.26,'11111222,11111222,11111222' 
TABS,ioos:station:wmo:42045:1,2012-10-01T22:30:00Z,26.2168,-96.4998,4.0,0.930376268,334.536504,2.06,'11111222,11111222,11111222' 
TABS,ioos:station:wmo:42045:1,2012-10-01T23:00:00Z,26.2168,-96.4998,4.0,0.722495675,311.633442,1.58,'11111222,11111222,11111222' 
TABS,ioos:station:wmo:42045:1,2012-10-01T23:30:00Z,26.2168,-96.4998,4.0,1.479594539,350.6648129,2.72,'11111222,11111222,11111222' 
TABS,ioos:station:wmo:42045:1,2012-10-02T00:00:00Z,26.2168,-96.4998,4.0,2.872368361,37.78721042,4.22,'11111222,11111222,11111222' 
TABS,ioos:station:wmo:42045:1,2012-10-02T00:30:00Z,26.2168,-96.4998,4.0,2.833866616,67.59750188,4.23,'11111222,11111222,11111222' 
TABS,ioos:station:wmo:42045:1,2012-10-02T01:00:00Z,26.2168,-96.4998,4.0,2.640075756,52.69571804,3.68,'11111222,11111222,11111222' 
TABS,ioos:station:wmo:42045:1,2012-10-02T01:30:00Z,26.2168,-96.4998,4.0,2.586986664,77.95125604,3.62,'11111222,11111222,11111222' 
TABS,ioos:station:wmo:42045:1,2012-10-02T02:00:00Z,26.2168,-96.4998,4.0,2.750163631,89.37456047,3.9,'11111222,11111222,11111222' 
TABS,ioos:station:wmo:42045:1,2012-10-02T02:30:00Z,26.2168,-96.4998,4.0,1.835347379,85.62482703,3.01,'11111222,11111222,11111222' 
TABS,ioos:station:wmo:42045:1,2012-10-02T03:00:00Z,26.2168,-96.4998,4.0,1.423692383,75.76815405,2.2,'11111222,11111222,11111222' 
TABS,ioos:station:wmo:42045:1,2012-10-02T03:30:00Z,26.2168,-96.4998,4.0,0.923146792,50.27356794,1.92,'11111222,11111222,11111222' 
TABS,ioos:station:wmo:42045:1,2012-10-02T04:00:00Z,26.2168,-96.4998,4.0,1.581423409,319.3592924,2.81,'11111222,11111222,11111222' 
TABS,ioos:station:wmo:42045:1,2012-10-02T04:30:00Z,26.2168,-96.4998,4.0,1.38798415,330.6645912,2.47,'11111222,11111222,11111222' 
TABS,ioos:station:wmo:42045:1,2012-10-02T05:00:00Z,26.2168,-96.4998,4.0,2.569708155,309.9482172,3.48,'11111222,11111222,11111222' 
TABS,ioos:station:wmo:42045:1,2012-10-02T05:30:00Z,26.2168,-96.4998,4.0,3.217530109,315.6294919,4.18,'11111222,11111222,11111222' 
TABS,ioos:station:wmo:42045:1,2012-10-02T06:00:00Z,26.2168,-96.4998,4.0,3.836378501,302.6543885,5.38,'11111222,11111222,11111222' 
TABS,ioos:station:wmo:42045:1,2012-10-02T06:30:00Z,26.2168,-96.4998,4.0,3.614374081,299.6858252,5.05,'11111222,11111222,11111222' 
TABS,ioos:station:wmo:42045:1,2012-10-02T07:00:00Z,26.2168,-96.4998,4.0,3.223181658,287.1418968,4.36,'11111222,11111222,11111222' 
TABS,ioos:station:wmo:42045:1,2012-10-02T07:30:00Z,26.2168,-96.4998,4.0,3.590264614,282.8749715,4.58,'11111222,11111222,11111222' 
TABS,ioos:station:wmo:42045:1,2012-10-02T08:00:00Z,26.2168,-96.4998,4.0,3.91414103,295.2556023,4.76,'11111222,11111222,11111222' 
TABS,ioos:station:wmo:42045:1,2012-10-02T08:30:00Z,26.2168,-96.4998,4.0,3.182970311,281.4158128,4.24,'11111222,11111222,11111222' 
TABS,ioos:station:wmo:42045:1,2012-10-02T09:00:00Z,26.2168,-96.4998,4.0,3.679673899,275.9274903,5.01,'11111222,11111222,11111222' 
TABS,ioos:station:wmo:42045:1,2012-10-02T09:30:00Z,26.2168,-96.4998,4.0,5.810034423,264.1716694,7.12,'11111222,11111222,11111222' 
TABS,ioos:station:wmo:42045:1,2012-10-02T10:00:00Z,26.2168,-96.4998,4.0,5.640576212,260.3039096,7.09,'11111222,11111222,11111222' 
TABS,ioos:station:wmo:42045:1,2012-10-02T10:30:00Z,26.2168,-96.4998,4.0,5.458094906,251.6314855,6.67,'11111222,11111222,11111222' 
TABS,ioos:station:wmo:42045:1,2012-10-02T11:00:00Z,26.2168,-96.4998,4.0,4.754418997,260.5575117,6.0,'11111222,11111222,11111222' 
TABS,ioos:station:wmo:42045:1,2012-10-02T11:30:00Z,26.2168,-96.4998,4.0,5.145755532,260.8305825,6.72,'11111222,11111222,11111222' 
TABS,ioos:station:wmo:42045:1,2012-10-02T12:00:00Z,26.2168,-96.4998,4.0,5.341348144,268.7126741,6.86,'11111222,11111222,11111222' 
TABS,ioos:station:wmo:42045:1,2012-10-02T12:30:00Z,26.2168,-96.4998,4.0,5.100245092,269.438296,6.12,'11111222,11111222,11111222' 
TABS,ioos:station:wmo:42045:1,2012-10-02T13:00:00Z,26.2168,-96.4998,4.0,5.03358719,267.8367794,6.04,'11111222,11111222,11111222' 
TABS,ioos:station:wmo:42045:1,2012-10-02T13:30:00Z,26.2168,-96.4998,4.0,4.500544412,270.8911937,5.48,'11111222,11111222,11111222' 
TABS,ioos:station:wmo:42045:1,2012-10-02T14:00:00Z,26.2168,-96.4998,4.0,4.559385924,275.2854344,5.88,'11111222,11111222,11111222' 
TABS,ioos:station:wmo:42045:1,2012-10-02T14:30:00Z,26.2168,-96.4998,4.0,5.255492365,277.5441957,6.63,'11111222,11111222,11111222' 
TABS,ioos:station:wmo:42045:1,2012-10-02T15:00:00Z,26.2168,-96.4998,4.0,5.028966097,279.4997605,6.71,'11111222,11111222,11111222' 
TABS,ioos:station:wmo:42045:1,2012-10-02T15:30:00Z,26.2168,-96.4998,4.0,5.391892061,282.2060544,6.69,'11111222,11111222,11111222' 
TABS,ioos:station:wmo:42045:1,2012-10-02T16:00:00Z,26.2168,-96.4998,4.0,5.602927806,284.6810695,7.28,'11111222,11111222,11111222' 
TABS,ioos:station:wmo:42045:1,2012-10-02T16:30:00Z,26.2168,-96.4998,4.0,5.795903726,280.4374509,7.31,'11111222,11111222,11111222' 
TABS,ioos:station:wmo:42045:1,2012-10-02T17:00:00Z,26.2168,-96.4998,4.0,5.639521256,283.2230367,7.17,'11111222,11111222,11111222' 
TABS,ioos:station:wmo:42045:1,2012-10-02T17:30:00Z,26.2168,-96.4998,4.0,5.165771966,281.6144358,6.33,'11111222,11111222,11111222' 
TABS,ioos:station:wmo:42045:1,2012-10-02T18:00:00Z,26.2168,-96.4998,4.0,4.831821603,279.8911809,6.73,'11111222,11111222,11111222' 
TABS,ioos:station:wmo:42045:1,2012-10-02T18:30:00Z,26.2168,-96.4998,4.0,4.441125983,271.2902243,5.56,'11111222,11111222,11111222' 
TABS,ioos:station:wmo:42045:1,2012-10-02T19:00:00Z,26.2168,-96.4998,4.0,4.023742039,277.4252516,5.17,'11111222,11111222,11111222' 
TABS,ioos:station:wmo:42045:1,2012-10-02T19:30:00Z,26.2168,-96.4998,4.0,3.992417814,290.0688867,5.4,'11111222,11111222,11111222' 
TABS,ioos:station:wmo:42045:1,2012-10-02T20:00:00Z,26.2168,-96.4998,4.0,2.87987847,308.9393582,4.25,'11111222,11111222,11111222' 
TABS,ioos:station:wmo:42045:1,2012-10-02T20:30:00Z,26.2168,-96.4998,4.0,2.137007253,328.3923612,2.87,'11111222,11111222,11111222' 
TABS,ioos:station:wmo:42045:1,2012-10-02T21:00:00Z,26.2168,-96.4998,4.0,1.781263596,353.5530492,2.81,'11111222,11111222,11111222' 
TABS,ioos:station:wmo:42045:1,2012-10-02T21:30:00Z,26.2168,-96.4998,4.0,2.111918559,2.442199141,3.0,'11111222,11111222,11111222' 
TABS,ioos:station:wmo:42045:1,2012-10-02T22:00:00Z,26.2168,-96.4998,4.0,2.452039967,16.58708931,3.22,'11111222,11111222,11111222' 
TABS,ioos:station:wmo:42045:1,2012-10-02T22:30:00Z,26.2168,-96.4998,4.0,2.836934966,352.0982021,3.62,'11111222,11111222,11111222' 
TABS,ioos:station:wmo:42045:1,2012-10-02T23:00:00Z,26.2168,-96.4998,4.0,3.933865783,355.1877776,5.32,'11111222,11111222,11111222' 
TABS,ioos:station:wmo:42045:1,2012-10-02T23:30:00Z,26.2168,-96.4998,4.0,4.613220133,352.1507372,5.94,'11111222,11111222,11111222' 
TABS,ioos:station:wmo:42045:1,2012-10-03T00:00:00Z,26.2168,-96.4998,4.0,4.163868394,352.6870479,5.69,'11111222,11111222,11111222' 
TABS,ioos:station:wmo:42045:1,2012-10-03T00:30:00Z,26.2168,-96.4998,4.0,3.398072983,5.911700194,5.08,'11111222,11111222,11111222' 
TABS,ioos:station:wmo:42045:1,2012-10-03T01:00:00Z,26.2168,-96.4998,4.0,3.384922451,6.956828858,5.04,'11111222,11111222,11111222' 
TABS,ioos:station:wmo:42045:1,2012-10-03T01:30:00Z,26.2168,-96.4998,4.0,3.430641339,355.4858116,4.56,'11111222,11111222,11111222' 
TABS,ioos:station:wmo:42045:1,2012-10-03T02:00:00Z,26.2168,-96.4998,4.0,2.640473442,1.084804624,4.67,'11111222,11111222,11111222' 
TABS,ioos:station:wmo:42045:1,2012-10-03T02:30:00Z,26.2168,-96.4998,4.0,2.467893839,8.622373466,3.8,'11111222,11111222,11111222' 
TABS,ioos:station:wmo:42045:1,2012-10-03T03:00:00Z,26.2168,-96.4998,4.0,2.3689027,45.51276593,3.6,'11111222,11111222,11111222' 
TABS,ioos:station:wmo:42045:1,2012-10-03T03:30:00Z,26.2168,-96.4998,4.0,1.359154149,348.1111593,3.13,'11111222,11111222,11111222' 
TABS,ioos:station:wmo:42045:1,2012-10-03T04:00:00Z,26.2168,-96.4998,4.0,2.218220007,26.21823658,3.29,'11111222,11111222,11111222' 
TABS,ioos:station:wmo:42045:1,2012-10-03T04:30:00Z,26.2168,-96.4998,4.0,1.656049516,331.1132753,2.38,'11111222,11111222,11111222' 
TABS,ioos:station:wmo:42045:1,2012-10-03T05:00:00Z,26.2168,-96.4998,4.0,0.721110255,3.179612225,1.57,'11111222,11111222,11111222' 
TABS,ioos:station:wmo:42045:1,2012-10-03T05:30:00Z,26.2168,-96.4998,4.0,1.662437969,3.103141606,2.8,'11111222,11111222,11111222' 
TABS,ioos:station:wmo:42045:1,2012-10-03T06:00:00Z,26.2168,-96.4998,4.0,1.346291202,58.67095947,2.11,'11111222,11111222,11111222' 
TABS,ioos:station:wmo:42045:1,2012-10-03T06:30:00Z,26.2168,-96.4998,4.0,1.73,72.50729546,2.62,'11111222,11111222,11111222' 
TABS,ioos:station:wmo:42045:1,2012-10-03T07:00:00Z,26.2168,-96.4998,4.0,3.108761811,111.1172762,4.08,'11111222,11111222,11111222' 
TABS,ioos:station:wmo:42045:1,2012-10-03T07:30:00Z,26.2168,-96.4998,4.0,3.693913913,129.508004,4.91,'11111222,11111222,11111222' 
TABS,ioos:station:wmo:42045:1,2012-10-03T08:00:00Z,26.2168,-96.4998,4.0,3.967933971,136.3277847,4.95,'11111222,11111222,11111222' 
TABS,ioos:station:wmo:42045:1,2012-10-03T08:30:00Z,26.2168,-96.4998,4.0,3.282102984,142.6765125,4.62,'11111222,11111222,11111222' 
TABS,ioos:station:wmo:42045:1,2012-10-03T09:00:00Z,26.2168,-96.4998,4.0,3.881906748,153.0391749,4.72,'11111222,11111222,11111222' 
TABS,ioos:station:wmo:42045:1,2012-10-03T09:30:00Z,26.2168,-96.4998,4.0,4.184459344,164.901246,5.09,'11111222,11111222,11111222' 
TABS,ioos:station:wmo:42045:1,2012-10-03T10:00:00Z,26.2168,-96.4998,4.0,4.392095172,173.0693777,5.23,'11111222,11111222,11111222' 
TABS,ioos:station:wmo:42045:1,2012-10-03T10:30:00Z,26.2168,-96.4998,4.0,4.532394511,174.3022093,5.61,'11111222,11111222,11111222' 
TABS,ioos:station:wmo:42045:1,2012-10-03T11:00:00Z,26.2168,-96.4998,4.0,4.487939394,173.6036402,5.51,'11111222,11111222,11111222' 
TABS,ioos:station:wmo:42045:1,2012-10-03T11:30:00Z,26.2168,-96.4998,4.0,4.023742039,172.5749589,4.92,'11111222,11111222,11111222' 
TABS,ioos:station:wmo:42045:1,2012-10-03T12:00:00Z,26.2168,-96.4998,4.0,4.49017817,180.5106259,5.84,'11111222,11111222,11111222' 
TABS,ioos:station:wmo:42045:1,2012-10-03T12:30:00Z,26.2168,-96.4998,4.0,4.043488593,175.3189519,5.49,'11111222,11111222,11111222' 
TABS,ioos:station:wmo:42045:1,2012-10-03T13:00:00Z,26.2168,-96.4998,4.0,4.232186196,168.6903044,5.35,'11111222,11111222,11111222' 
TABS,ioos:station:wmo:42045:1,2012-10-03T13:30:00Z,26.2168,-96.4998,4.0,4.038328862,167.9946654,5.21,'11111222,11111222,11111222' 
TABS,ioos:station:wmo:42045:1,2012-10-03T14:00:00Z,26.2168,-96.4998,4.0,3.992242478,163.1085542,4.95,'11111222,11111222,11111222' 
TABS,ioos:station:wmo:42045:1,2012-10-03T14:30:00Z,26.2168,-96.4998,4.0,4.174326293,169.9286453,5.3,'11111222,11111222,11111222' 
TABS,ioos:station:wmo:42045:1,2012-10-03T15:00:00Z,26.2168,-96.4998,4.0,4.551977592,169.1099548,5.62,'11111222,11111222,11111222' 
TABS,ioos:station:wmo:42045:1,2012-10-03T15:30:00Z,26.2168,-96.4998,4.0,4.617899956,160.3881626,5.66,'11111222,11111222,11111222' 
TABS,ioos:station:wmo:42045:1,2012-10-03T16:00:00Z,26.2168,-96.4998,4.0,5.467083317,159.7753983,6.23,'11111222,11111222,11111222' 
TABS,ioos:station:wmo:42045:1,2012-10-03T16:30:00Z,26.2168,-96.4998,4.0,5.650141591,156.9747723,6.84,'11111222,11111222,11111222' 
TABS,ioos:station:wmo:42045:1,2012-10-03T17:00:00Z,26.2168,-96.4998,4.0,6.135878095,155.6490492,7.6,'11111222,11111222,11111222' 
TABS,ioos:station:wmo:42045:1,2012-10-03T17:30:00Z,26.2168,-96.4998,4.0,6.244181291,162.9582374,7.89,'11111222,11111222,11111222' 
TABS,ioos:station:wmo:42045:1,2012-10-03T18:00:00Z,26.2168,-96.4998,4.0,6.668508079,158.6296382,8.19,'11111222,11111222,11111222' 
TABS,ioos:station:wmo:42045:1,2012-10-03T18:30:00Z,26.2168,-96.4998,4.0,6.621918151,161.2369665,8.09,'11111222,11111222,11111222' 
TABS,ioos:station:wmo:42045:1,2012-10-03T19:00:00Z,26.2168,-96.4998,4.0,6.493442846,159.4442133,7.98,'11111222,11111222,11111222' 
TABS,ioos:station:wmo:42045:1,2012-10-03T19:30:00Z,26.2168,-96.4998,4.0,6.898405613,159.4636553,8.34,'11111222,11111222,11111222' 
TABS,ioos:station:wmo:42045:1,2012-10-03T20:00:00Z,26.2168,-96.4998,4.0,7.684920299,160.857987,9.11,'11111222,11111222,11111222' 
TABS,ioos:station:wmo:42045:1,2012-10-03T20:30:00Z,26.2168,-96.4998,4.0,7.562254955,159.000826,9.0,'11111222,11111222,11111222' 
TABS,ioos:station:wmo:42045:1,2012-10-03T21:00:00Z,26.2168,-96.4998,4.0,7.333109845,158.2278698,8.44,'11111222,11111222,11111222' 
TABS,ioos:station:wmo:42045:1,2012-10-03T21:30:00Z,26.2168,-96.4998,4.0,7.688231266,154.168459,9.18,'11111222,11111222,11111222' 
TABS,ioos:station:wmo:42045:1,2012-10-03T22:00:00Z,26.2168,-96.4998,4.0,6.909544124,156.3661399,7.86,'11111222,11111222,11111222' 
TABS,ioos:station:wmo:42045:1,2012-10-03T22:30:00Z,26.2168,-96.4998,4.0,7.249399975,153.1878019,8.31,'11111222,11111222,11111222' 
TABS,ioos:station:wmo:42045:1,2012-10-03T23:00:00Z,26.2168,-96.4998,4.0,7.164356217,150.5728229,8.49,'11111222,11111222,11111222' 
TABS,ioos:station:wmo:42045:1,2012-10-03T23:30:00Z,26.2168,-96.4998,4.0,7.370101763,153.5742882,8.82,'11111222,11111222,11111222' 
TABS,ioos:station:wmo:42045:1,2012-10-04T00:00:00Z,26.2168,-96.4998,4.0,7.281133154,154.1038749,8.58,'11111222,11111222,11111222' 
TABS,ioos:station:wmo:42045:1,2012-10-04T00:30:00Z,26.2168,-96.4998,4.0,7.650464038,150.218242,8.92,'11111222,11111222,11111222' 
TABS,ioos:station:wmo:42045:1,2012-10-04T01:00:00Z,26.2168,-96.4998,4.0,7.732948985,156.286037,9.2,'11111222,11111222,11111222' 
TABS,ioos:station:wmo:42045:1,2012-10-04T01:30:00Z,26.2168,-96.4998,4.0,7.875614262,153.0447972,9.3,'11111222,11111222,11111222' 
TABS,ioos:station:wmo:42045:1,2012-10-04T02:00:00Z,26.2168,-96.4998,4.0,8.087181215,149.947833,9.23,'11111222,11111222,11111222' 
TABS,ioos:station:wmo:42045:1,2012-10-04T02:30:00Z,26.2168,-96.4998,4.0,8.492643876,148.8745439,9.85,'11111222,11111222,11111222' 
TABS,ioos:station:wmo:42045:1,2012-10-04T03:00:00Z,26.2168,-96.4998,4.0,8.439063929,153.7692145,10.05,'11111222,11111222,11111222' 
TABS,ioos:station:wmo:42045:1,2012-10-04T03:30:00Z,26.2168,-96.4998,4.0,8.810022701,149.3599751,10.22,'11111222,11111222,11111222' 
TABS,ioos:station:wmo:42045:1,2012-10-04T04:00:00Z,26.2168,-96.4998,4.0,8.566498701,148.7038827,10.43,'11111222,11111222,11111222' 
TABS,ioos:station:wmo:42045:1,2012-10-04T04:30:00Z,26.2168,-96.4998,4.0,8.688900966,148.2675034,9.93,'11111222,11111222,11111222' 
TABS,ioos:station:wmo:42045:1,2012-10-04T05:00:00Z,26.2168,-96.4998,4.0,8.803391392,149.5611357,10.23,'11111222,11111222,11111222' 
TABS,ioos:station:wmo:42045:1,2012-10-04T05:30:00Z,26.2168,-96.4998,4.0,8.619570755,152.2757896,10.18,'11111222,11111222,11111222' 
TABS,ioos:station:wmo:42045:1,2012-10-04T06:00:00Z,26.2168,-96.4998,4.0,9.095740761,156.4790949,10.35,'11111222,11111222,11111222' 
TABS,ioos:station:wmo:42045:1,2012-10-04T06:30:00Z,26.2168,-96.4998,4.0,8.841289499,159.4745525,10.22,'11111222,11111222,11111222' 
TABS,ioos:station:wmo:42045:1,2012-10-04T07:00:00Z,26.2168,-96.4998,4.0,8.791359394,161.153113,10.21,'11111222,11111222,11111222' 
TABS,ioos:station:wmo:42045:1,2012-10-04T07:30:00Z,26.2168,-96.4998,4.0,9.281055974,164.8859027,11.03,'11111222,11111222,11111222' 
TABS,ioos:station:wmo:42045:1,2012-10-04T08:00:00Z,26.2168,-96.4998,4.0,9.295730203,163.4367907,11.12,'11111222,11111222,11111222' 
TABS,ioos:station:wmo:42045:1,2012-10-04T08:30:00Z,26.2168,-96.4998,4.0,9.095603333,165.3528694,10.6,'11111222,11111222,11111222' 
TABS,ioos:station:wmo:42045:1,2012-10-04T09:00:00Z,26.2168,-96.4998,4.0,8.646461704,165.738997,10.01,'11111222,11111222,11111222' 
TABS,ioos:station:wmo:42045:1,2012-10-04T09:30:00Z,26.2168,-96.4998,4.0,8.570630082,163.3202148,10.36,'11111222,11111222,11111222' 
TABS,ioos:station:wmo:42045:1,2012-10-04T10:00:00Z,26.2168,-96.4998,4.0,8.910089786,162.7651446,10.66,'11111222,11111222,11111222' 
TABS,ioos:station:wmo:42045:1,2012-10-04T10:30:00Z,26.2168,-96.4998,4.0,8.479274733,163.9805987,10.15,'11111222,11111222,11111222' 
TABS,ioos:station:wmo:42045:1,2012-10-04T11:00:00Z,26.2168,-96.4998,4.0,8.352897701,162.584847,9.7,'11111222,11111222,11111222' 
TABS,ioos:station:wmo:42045:1,2012-10-04T11:30:00Z,26.2168,-96.4998,4.0,8.931785936,160.510405,10.83,'11111222,11111222,11111222' 
TABS,ioos:station:wmo:42045:1,2012-10-04T12:00:00Z,26.2168,-96.4998,4.0,8.759737439,161.151625,10.44,'11111222,11111222,11111222' 
TABS,ioos:station:wmo:42045:1,2012-10-04T12:30:00Z,26.2168,-96.4998,4.0,9.033947089,156.585151,10.78,'11111222,11111222,11111222' 
TABS,ioos:station:wmo:42045:1,2012-10-04T13:00:00Z,26.2168,-96.4998,4.0,8.623369411,156.1996864,10.79,'11111222,11111222,11111222' 
TABS,ioos:station:wmo:42045:1,2012-10-04T13:30:00Z,26.2168,-96.4998,4.0,8.633846188,157.3855031,10.12,'11111222,11111222,11111222' 
TABS,ioos:station:wmo:42045:1,2012-10-04T14:00:00Z,26.2168,-96.4998,4.0,8.430593099,158.0600302,9.76,'11111222,11111222,11111222' 
TABS,ioos:station:wmo:42045:1,2012-10-04T14:30:00Z,26.2168,-96.4998,4.0,7.432745119,155.4350997,8.74,'11111222,11111222,11111222' 
TABS,ioos:station:wmo:42045:1,2012-10-04T15:00:00Z,26.2168,-96.4998,4.0,7.914625702,155.11895,9.64,'11111222,11111222,11111222' 
TABS,ioos:station:wmo:42045:1,2012-10-04T15:30:00Z,26.2168,-96.4998,4.0,7.57248308,149.8800026,8.72,'11111222,11111222,11111222' 
TABS,ioos:station:wmo:42045:1,2012-10-04T16:00:00Z,26.2168,-96.4998,4.0,7.808360904,153.5336674,8.98,'11111222,11111222,11111222' 
TABS,ioos:station:wmo:42045:1,2012-10-04T16:30:00Z,26.2168,-96.4998,4.0,7.82205216,151.4365849,9.11,'11111222,11111222,11111222' 
TABS,ioos:station:wmo:42045:1,2012-10-04T17:00:00Z,26.2168,-96.4998,4.0,8.10061726,151.2204715,10.03,'11111222,11111222,11111222' 
TABS,ioos:station:wmo:42045:1,2012-10-04T17:30:00Z,26.2168,-96.4998,4.0,8.300566246,149.2022571,9.74,'11111222,11111222,11111222' 
TABS,ioos:station:wmo:42045:1,2012-10-04T18:00:00Z,26.2168,-96.4998,4.0,8.097616933,147.5073871,9.55,'11111222,11111222,11111222' 
TABS,ioos:station:wmo:42045:1,2012-10-04T18:30:00Z,26.2168,-96.4998,4.0,7.525490017,148.6970392,8.84,'11111222,11111222,11111222' 